OPS 4682 DEB, 51497

Orbit data source: Space-Track

OPS 4682 DEB, 51497 is space debris in LEO originally from a launch on Sat, 03 Apr 1965 UTC launched from the Air Force Western Test Range (AFWTR). Debris objects in space refer to the collection of defunct objects orbiting the Earth. Examples of debris include non-operational satellites, rocket bodies, and fragments generated from explosions, collisions, or faulty payload assembly.

Loading next visibility...
Identifier
51497, 1965-027GH
Orbit
LEO
Country
Flag of USUS
Related business
Manufacturer
Unknown
Mission
Spacecraft
Bus & Motor
Unknown
Mass
Unknown
Launch date (UTC)
1965-04-03 (61 years ago)
Launch vehicle
Unknown
Launch site
Air Force Western Test Range (AFWTR)
Object type
Payload
Rocket body
Debris
Shape & HBR
Unknown
Radar Cross Section
Medium (>0.1 m² and <1 m²)

Expand to show TLE details & history
Last TLE update: 4 days ago

TLE from 4 days ago
0 OPS 4682 DEB
1 51497U 65027GH  26204.90220118  .00000598  00000-0  21195-2 0  9995
2 51497  90.2551   9.8323 0036385 175.4209 184.7250 12.94395147422222
Epoch: 2026-07-23T21:39Z
TLE epoch observation values (Epoch: 2026-07-23T21:39:10.181Z)
Latitude
-0.00002°
Longitude
103.40335°
Altitude
1,314.792 km
Speed
7.186 km/s
True Right ascension
00h 39m 19s
True Declination
0° 00' 00"
Sunlit
Object was in daylight at epoch
Visualization orbit readout
Latitude
Unknown
Longitude
Unknown
Altitude
Unknown
Speed
Unknown
Apparent Right ascension
Unknown
Apparent Declination
Unknown
Sunlit
N/A
Visualization observer readout
Local Sidereal Time
11:11:26
Azimuth
Unknown
Elevation
Unknown
Doppler factor
Unknown
Orbital elements
Apogee altitude
1,309.13 km
Perigee altitude
1,253.393 km
Semi-major axis
7,659.398 km
Eccentricity
0.00364
Inclination
90.2551°
RAAN
9.8323°
Arg. of periapsis
175.4209°
True anomaly
184.69081°
Mean anomaly
184.725°
Eccentric anomaly
184.70789°
Mean motion
3.23781 °/min
Orbital period
111.19 mins
BSTAR
0.0021195
Loading maneuver chart data...
Computing Atmospheric mass density...
Loading historical data...
Loading historical data...
Loading historical data...
Loading historical data...
Loading historical data...
Loading historical data...
Loading historical data...

Documentation

Showing up to 5 results
|